CW1490 Weather Reports


Display with metric or nautical units.
time (UTC)temp
F
wind
direction
speed
MPH
gust
MPH
rain 1hr
in
rain 24hr
in
rain mn
in
humidity
%
barometer
mb
20260904195513 78 26 1.0 8.0 0.00 0.00 0.00 58 1010.1
20260904195006 78 291 3.0 12.0 0.00 0.00 0.00 57 1010.2
20260904194515 79 15 4.0 12.0 0.00 0.00 0.00 54 1010.4
20260904194008 79 321 6.0 17.0 0.00 0.00 0.00 55 1010.3
20260904193506 79 51 4.0 19.0 0.00 0.00 0.00 53 1010.2
20260904193021 81 43 11.0 19.0 0.00 0.00 0.00 50 1010.1
20260904192509 81 347 6.0 16.0 0.00 0.00 0.00 54 1010.2
20260904192006 79 51 3.0 15.0 0.00 0.00 0.00 54 1010.2
20260904191514 79 24 5.0 16.0 0.00 0.00 0.00 56 1010.3
20260904191006 80 347 9.0 21.0 0.00 0.00 0.00 55 1010.3
20260904190508 79 307 7.0 21.0 0.00 0.00 0.00 55 1010.3
20260904190015 80 44 5.0 21.0 0.00 0.00 0.00 55 1010.3
20260904185509 81 15 11.0 21.0 0.00 0.00 0.00 54 1010.4
20260904185006 82 29 10.0 18.0 0.00 0.00 0.00 57 1010.3
20260904184520 81 25 9.0 17.0 0.00 0.00 0.00 54 1010.2
20260904184008 81 59 4.0 17.0 0.00 0.00 0.00 56 1010.3
20260904183508 82 25 4.0 12.0 0.00 0.00 0.00 51 1010.3
20260904183017 82 41 5.0 15.0 0.00 0.00 0.00 51 1010.3
20260904182510 81 341 4.0 15.0 0.00 0.00 0.00 51 1010.3
20260904182010 82 9 4.0 15.0 0.00 0.00 0.00 52 1010.4
20260904181517 82 26 4.0 15.0 0.00 0.00 0.00 51 1010.4
20260904181009 82 34 8.0 15.0 0.00 0.00 0.00 53 1010.3
20260904180509 81 221 3.0 12.0 0.00 0.00 0.00 51 1010.4
20260904180021 80 298 4.0 12.0 0.00 0.00 0.00 55 1010.4
20260904175507 80 32 5.0 13.0 0.00 0.00 0.00 57 1010.4
20260904175005 80 9 5.0 13.0 0.00 0.00 0.00 54 1010.4
20260904174527 79 34 1.0 13.0 0.00 0.00 0.00 60 1010.4
20260904174011 79 265 1.0 9.0 0.00 0.00 0.00 56 1010.4
20260904173512 80 344 3.0 13.0 0.00 0.00 0.00 54 1010.3
20260904173024 81 59 4.0 13.0 0.00 0.00 0.00 55 1010.3
20260904172508 80 300 4.0 14.0 0.00 0.00 0.00 60 1010.3
20260904172011 79 317 5.0 15.0 0.00 0.00 0.00 56 1010.4
20260904171536 80 328 6.0 17.0 0.00 0.00 0.00 56 1010.4
20260904171010 80 17 4.0 17.0 0.00 0.00 0.00 55 1010.5
20260904170508 82 19 12.0 16.0 0.00 0.00 0.00 52 1010.5
20260904170026 82 36 6.0 16.0 0.00 0.00 0.00 58 1010.6
20260904165510 81 36 7.0 14.0 0.00 0.00 0.00 57 1010.5
20260904165010 80 321 7.0 14.0 0.00 0.00 0.00 58 1010.7
20260904164526 80 309 2.0 13.0 0.00 0.00 0.00 57 1010.7
20260904164010 80 137 5.0 20.0 0.00 0.00 0.00 56 1010.6
20260904163514 80 32 7.0 20.0 0.00 0.00 0.00 54 1010.7
20260904163023 80 15 5.0 16.0 0.00 0.00 0.00 56 1010.8
20260904162509 80 330 9.0 16.0 0.00 0.00 0.00 56 1010.9
20260904162012 80 49 6.0 21.0 0.00 0.00 0.00 56 1010.9
20260904161524 81 34 3.0 21.0 0.00 0.00 0.00 56 1010.8
20260904161011 81 9 3.0 11.0 0.00 0.00 0.00 57 1010.8
20260904160518 81 291 1.0 11.0 0.00 0.00 0.00 57 1010.8
20260904160034 80 340 4.0 15.0 0.00 0.00 0.00 59 1010.9
20260904155512 80 50 8.0 15.0 0.00 0.00 0.00 56 1011.0
20260904155019 80 31 6.0 14.0 0.00 0.00 0.00 60 1011.1
20260904154527 80 33 6.0 15.0 0.00 0.00 0.00 61 1011.1
20260904154010 79 26 8.0 21.0 0.00 0.00 0.00 58 1011.1
20260904153506 80 292 4.0 21.0 0.00 0.00 0.00 63 1011.1
20260904153019 79 44 6.0 16.0 0.00 0.00 0.00 62 1011.2
20260904152511 79 205 2.0 16.0 0.00 0.00 0.00 62 1011.2
20260904152011 79 49 6.0 16.0 0.00 0.00 0.00 64 1011.3
20260904151524 78 302 6.0 15.0 0.00 0.00 0.00 65 1011.5
20260904151014 78 15 6.0 13.0 0.00 0.00 0.00 71 1011.5
20260904150517 77 234 4.0 13.0 0.00 0.00 0.00 69 1011.5
20260904150039 76 325 4.0 11.0 0.00 0.00 0.00 74 1011.4
20260904145513 75 330 3.0 9.0 0.00 0.00 0.00 81 1011.5
20260904145014 75 265 2.0 6.0 0.00 0.00 0.00 82 1011.4
20260904144532 74 146 2.0 5.0 0.00 0.00 0.00 80 1011.5
20260904144013 74 68 1.0 7.0 0.00 0.00 0.00 81 1011.5
20260904143514 73 38 3.0 7.0 0.00 0.00 0.00 84 1011.5
20260904143028 72 61 2.0 6.0 0.00 0.00 0.00 84 1011.6
20260904142508 72 51 3.0 6.0 0.00 0.00 0.00 84 1011.7
20260904142006 71 56 2.0 5.0 0.00 0.00 0.00 84 1011.6
20260904141527 71 85 2.0 4.0 0.00 0.00 0.00 86 1011.7
20260904141012 70 34 1.0 4.0 0.00 0.00 0.00 90 1011.6
20260904140512 69 93 1.0 3.0 0.00 0.00 0.00 91 1011.7
20260904140032 68 41 1.0 3.0 0.00 0.00 0.00 93 1011.7
20260904135512 68 119 1.0 4.0 0.00 0.00 0.00 95 1011.8
20260904135016 67 137 2.0 6.0 0.00 0.00 0.00 94 1011.9
20260904134531 67 51 1.0 6.0 0.00 0.00 0.00 95 1011.9
20260904134013 66 93 3.0 6.0 0.00 0.00 0.00 95 1011.8
20260904133517 66 328 2.0 4.0 0.00 0.00 0.00 95 1011.9
20260904133032 65 51 1.0 4.0 0.00 0.00 0.00 96 1011.9
20260904132517 65 76 2.0 5.0 0.00 0.00 0.00 95 1011.9
20260904132006 64 325 1.0 5.0 0.00 0.00 0.00 95 1011.9
20260904131519 63 9 1.0 6.0 0.00 0.00 0.00 95 1011.8
20260904131016 64 68 2.0 6.0 0.00 0.00 0.00 95 1011.8
20260904130512 64 48 4.0 6.0 0.00 0.00 0.00 95 1011.8
20260904130029 63 68 3.0 6.0 0.00 0.00 0.00 95 1011.9
20260904125504 63 78 2.0 6.0 0.00 0.00 0.00 95 1011.9
20260904125004 63 41 4.0 6.0 0.00 0.00 0.00 95 1011.9
20260904124506 63 41 2.0 6.0 0.00 0.00 0.00 95 1011.9
20260904124002 63 47 2.0 6.0 0.00 0.00 0.00 95 1011.9
20260904123508 63 22 1.0 4.0 0.00 0.00 0.00 95 1011.9
20260904123011 63 38 1.0 3.0 0.00 0.00 0.00 95 1011.9
20260904122512 63 9 1.0 3.0 0.00 0.00 0.00 95 1011.8
20260904122007 62 9 0.0 4.0 0.00 0.00 0.00 95 1011.8
20260904121517 62 115 2.0 4.0 0.00 0.00 0.00 95 1011.8
20260904121009 62 168 1.0 3.0 0.00 0.00 0.00 95 1011.7
20260904120509 62 51 0.0 3.0 0.00 0.00 0.00 95 1011.7
20260904120024 62 221 1.0 5.0 0.00 0.00 0.00 95 1011.6
20260904115512 62 325 1.0 5.0 0.00 0.00 0.00 94 1011.6
20260904115010 61 68 2.0 5.0 0.00 0.00 0.00 95 1011.5
20260904114530 61 336 2.0 5.0 0.00 0.00 0.00 95 1011.5
20260904114002 61 44 2.0 3.0 0.00 0.00 0.00 95 1011.5
20260904113505 61 26 1.0 5.0 0.00 0.00 0.00 94 1011.5
20260904113006 61 22 2.0 5.0 0.00 0.00 0.00 94 1011.6
20260904112512 61 47 3.0 5.0 0.00 0.00 0.00 94 1011.5
20260904112007 61 9 1.0 4.0 0.00 0.00 0.00 94 1011.5
20260904111514 61 51 0.0 4.0 0.00 0.00 0.00 94 1011.5
20260904111005 61 19 3.0 6.0 0.00 0.00 0.00 94 1011.6
20260904110505 61 9 2.0 6.0 0.00 0.00 0.00 94 1011.5
20260904110019 61 325 1.0 3.0 0.00 0.00 0.00 94 1011.5
20260904105517 61 24 1.0 3.0 0.00 0.00 0.00 94 1011.5
20260904105011 61 338 0.0 2.0 0.00 0.00 0.00 94 1011.5
20260904104524 61 9 0.0 3.0 0.00 0.00 0.00 94 1011.4
20260904104016 61 9 0.0 4.0 0.00 0.00 0.00 94 1011.4
20260904103519 61 9 1.0 4.0 0.00 0.00 0.00 94 1011.5
20260904103036 61 56 2.0 4.0 0.00 0.00 0.00 94 1011.4
20260904102512 61 41 2.0 3.0 0.00 0.00 0.00 94 1011.3
20260904102003 61 9 1.0 3.0 0.00 0.00 0.00 94 1011.2
20260904101510 61 9 1.0 4.0 0.00 0.00 0.00 94 1011.2
20260904101009 61 30 1.0 4.0 0.00 0.00 0.00 94 1011.1
20260904100510 61 38 1.0 5.0 0.00 0.00 0.00 94 1011.0
20260904100014 61 26 2.0 5.0 0.00 0.00 0.00 94 1011.0
20260904095517 62 49 3.0 5.0 0.00 0.00 0.00 94 1011.0
20260904095011 62 48 2.0 4.0 0.00 0.00 0.00 94 1010.9
20260904094518 62 34 2.0 4.0 0.00 0.00 0.00 94 1011.0
20260904094009 62 61 1.0 4.0 0.00 0.00 0.00 94 1011.0
20260904093513 62 22 1.0 4.0 0.00 0.00 0.00 94 1011.0
20260904093032 62 55 2.0 4.0 0.00 0.00 0.00 94 1011.0
20260904092514 62 61 1.0 4.0 0.00 0.00 0.00 94 1011.0
20260904092011 62 36 2.0 4.0 0.00 0.00 0.00 94 1011.0
20260904091530 62 32 2.0 4.0 0.00 0.00 0.00 94 1010.9
20260904091016 62 51 2.0 4.0 0.00 0.00 0.00 94 1011.0
20260904090506 62 48 2.0 4.0 0.00 0.00 0.00 94 1010.9
20260904090011 62 59 1.0 3.0 0.00 0.00 0.00 94 1010.9
20260904085514 62 51 1.0 3.0 0.00 0.00 0.00 94 1010.9
20260904085007 62 44 1.0 4.0 0.00 0.00 0.00 94 1011.0
20260904084518 62 38 2.0 4.0 0.00 0.00 0.00 94 1010.9
20260904084010 62 19 1.0 5.0 0.00 0.00 0.00 94 1011.0
20260904083512 62 19 3.0 5.0 0.00 0.00 0.00 94 1011.0
20260904083022 62 20 2.0 4.0 0.00 0.00 0.00 94 1011.0
20260904082514 62 44 0.0 5.0 0.00 0.00 0.00 94 1011.0
20260904082014 62 22 1.0 5.0 0.00 0.00 0.00 94 1011.0
20260904081534 62 28 2.0 4.0 0.00 0.00 0.00 94 1010.9
20260904081018 62 61 1.0 4.0 0.00 0.00 0.00 94 1010.9
20260904080514 62 51 0.0 1.0 0.00 0.00 0.00 94 1010.9
20260904080028 62 9 0.0 2.0 0.00 0.00 0.00 94 1010.9
20260904075515 62 9 0.0 3.0 0.00 0.00 0.00 94 1010.9
20260904075017 62 319 0.0 4.0 0.00 0.00 0.00 94 1010.9
20260904074514 62 265 0.0 5.0 0.00 0.00 0.00 93 1011.0
20260904074006 62 247 3.0 5.0 0.00 0.00 0.00 93 1011.1
20260904073510 62 238 3.0 6.0 0.00 0.00 0.00 93 1011.2
20260904073019 62 234 3.0 6.0 0.00 0.00 0.00 93 1011.2
20260904072510 62 232 3.0 5.0 0.00 0.00 0.00 93 1011.3
20260904072009 62 252 3.0 5.0 0.00 0.00 0.00 93 1011.3
20260904071532 63 225 2.0 3.0 0.00 0.00 0.00 93 1011.4
20260904071011 63 205 2.0 3.0 0.00 0.00 0.00 93 1011.3
20260904070514 63 255 1.0 3.0 0.00 0.00 0.00 93 1011.3
20260904070029 63 234 1.0 3.0 0.00 0.00 0.00 93 1011.3
20260904065519 63 254 1.0 3.0 0.00 0.00 0.00 93 1011.3
20260904065018 63 275 0.0 3.0 0.00 0.00 0.00 93 1011.3
20260904064533 63 265 0.0 5.0 0.00 0.00 0.00 93 1011.4
20260904064017 64 149 2.0 5.0 0.00 0.00 0.00 93 1011.4
20260904063520 64 231 1.0 4.0 0.00 0.00 0.00 93 1011.5
20260904063035 64 205 1.0 6.0 0.00 0.00 0.00 93 1011.4
20260904062515 64 51 1.0 6.0 0.00 0.00 0.00 93 1011.3
20260904062012 64 34 2.0 4.0 0.00 0.00 0.00 93 1011.5
20260904061524 64 314 1.0 4.0 0.00 0.01 0.00 93 1011.5
20260904061017 63 300 1.0 4.0 0.00 0.01 0.00 93 1011.5
20260904060512 63 68 1.0 3.0 0.00 0.01 0.00 93 1011.5
20260904060029 63 325 1.0 2.0 0.00 0.01 0.00 93 1011.5
20260904055511 63 309 0.0 2.0 0.00 0.02 0.00 93 1011.5
20260904055019 63 309 0.0 2.0 0.00 0.02 0.00 93 1011.6
20260904054530 63 232 0.0 2.0 0.00 0.02 0.00 93 1011.7
20260904054018 64 9 0.0 2.0 0.00 0.02 0.00 93 1011.8
20260904053515 64 9 0.0 2.0 0.00 0.02 0.00 93 1011.9
20260904053039 64 291 1.0 2.0 0.00 0.02 0.00 93 1012.0
20260904052521 64 232 1.0 2.0 0.00 0.02 0.00 93 1012.0
20260904052019 64 51 0.0 2.0 0.00 0.02 0.00 93 1012.1
20260904051538 64 221 0.0 2.0 0.00 0.02 0.00 93 1012.1
20260904051011 64 291 0.0 2.0 0.00 0.02 0.00 93 1012.1
20260904050509 64 93 0.0 2.0 0.00 0.02 0.00 92 1012.1
20260904050034 64 51 0.0 2.0 0.00 0.02 0.00 92 1012.2
20260904045516 64 9 0.0 2.0 0.00 0.02 0.00 92 1012.2
20260904045014 64 309 0.0 3.0 0.00 0.02 0.00 92 1012.1
20260904044528 64 51 0.0 4.0 0.00 0.02 0.00 92 1012.1
20260904044019 64 232 2.0 4.0 0.00 0.02 0.00 92 1012.2
20260904043516 65 209 1.0 6.0 0.00 0.02 0.00 92 1012.1
20260904043031 65 205 2.0 7.0 0.00 0.02 0.00 92 1012.1
20260904042519 65 209 4.0 7.0 0.00 0.02 0.00 92 1012.1
20260904042006 65 213 3.0 5.0 0.00 0.02 0.00 92 1012.1
20260904041521 65 165 1.0 3.0 0.00 0.02 0.00 92 1012.1
20260904041012 65 229 1.0 3.0 0.00 0.02 0.00 92 1012.2
20260904040508 65 232 1.0 3.0 0.00 0.02 0.00 92 1012.2
20260904040025 65 250 1.0 3.0 0.00 0.02 0.00 92 1012.2
20260904035517 65 247 1.0 3.0 0.00 0.02 0.02 92 1012.1
20260904035016 65 238 2.0 3.0 0.00 0.02 0.02 92 1012.2
20260904034532 65 93 0.0 4.0 0.00 0.02 0.02 92 1012.1
20260904034014 66 214 1.0 4.0 0.00 0.02 0.02 92 1012.3
20260904033518 66 193 1.0 4.0 0.00 0.02 0.02 92 1012.3
20260904033008 66 221 1.0 4.0 0.00 0.02 0.02 92 1012.4
20260904032521 66 238 2.0 4.0 0.00 0.02 0.02 92 1012.3
20260904032005 66 243 1.0 2.0 0.00 0.02 0.02 92 1012.4
20260904031514 66 26 0.0 3.0 0.00 0.02 0.02 92 1012.2
20260904031007 66 265 0.0 5.0 0.00 0.02 0.02 92 1012.3
20260904030508 66 178 2.0 5.0 0.00 0.02 0.02 91 1012.3
20260904030020 67 221 2.0 4.0 0.00 0.02 0.02 92 1012.4
20260904025516 67 213 1.0 4.0 0.00 0.02 0.02 91 1012.5
20260904025012 67 221 2.0 4.0 0.00 0.02 0.02 91 1012.6
20260904024526 67 243 1.0 3.0 0.00 0.02 0.02 91 1012.5
20260904024013 67 238 1.0 2.0 0.00 0.02 0.02 91 1012.5
20260904023514 67 205 0.0 2.0 0.00 0.02 0.02 91 1012.7
20260904023031 67 119 0.0 3.0 0.00 0.02 0.02 91 1012.6
20260904022517 68 22 2.0 3.0 0.00 0.02 0.02 91 1012.6
20260904022020 68 41 0.0 3.0 0.00 0.02 0.02 91 1012.4
20260904021508 68 238 1.0 3.0 0.00 0.02 0.02 91 1012.4
20260904021004 68 232 2.0 3.0 0.00 0.02 0.02 91 1012.4
20260904020506 68 214 0.0 3.0 0.00 0.02 0.02 91 1012.5
20260904020015 68 265 1.0 2.0 0.00 0.02 0.02 91 1012.6
20260904015507 68 265 1.0 2.0 0.00 0.02 0.02 90 1012.7
20260904015014 68 265 1.0 2.0 0.00 0.02 0.02 90 1012.7
20260904014523 69 265 0.0 2.0 0.00 0.02 0.02 91 1012.6
20260904014012 69 265 0.0 2.0 0.00 0.02 0.02 90 1012.7
20260904013512 69 9 0.0 2.0 0.00 0.02 0.02 90 1012.8
20260904013027 69 265 0.0 2.0 0.00 0.02 0.02 90 1012.8
20260904012516 69 265 0.0 2.0 0.00 0.02 0.02 90 1012.8
20260904012016 69 178 0.0 2.0 0.00 0.02 0.02 90 1012.7
20260904011533 69 178 0.0 3.0 0.00 0.02 0.02 90 1012.7
20260904011020 70 232 1.0 3.0 0.00 0.02 0.02 90 1012.7
20260904010517 70 234 1.0 3.0 0.00 0.02 0.02 90 1012.7
20260904010013 70 205 0.0 4.0 0.00 0.02 0.02 90 1012.8
20260904005506 70 247 0.0 5.0 0.00 0.02 0.02 90 1012.7
20260904005006 70 234 2.0 5.0 0.00 0.02 0.02 90 1012.7
20260904004517 70 216 2.0 3.0 0.00 0.02 0.02 90 1012.5
20260904004015 71 221 0.0 3.0 0.00 0.02 0.02 89 1012.5
20260904003513 71 227 1.0 4.0 0.00 0.02 0.02 89 1012.4
20260904003026 71 178 1.0 5.0 0.00 0.02 0.02 89 1012.4
20260904002516 71 178 1.0 5.0 0.00 0.02 0.02 89 1012.3
20260904002014 71 196 1.0 4.0 0.00 0.02 0.02 89 1012.2
20260904001526 72 319 2.0 4.0 0.00 0.02 0.02 89 1012.1
20260904001013 72 234 2.0 5.0 0.00 0.02 0.02 89 1011.9
20260904000515 72 232 2.0 5.0 0.00 0.02 0.02 88 1011.9
20260904000110 72 219 3.0 6.0 0.00 0.02 0.02 88 1011.8
20260903235520 72 265 2.0 9.0 0.00 0.02 0.02 88 1011.8
20260903235014 73 163 4.0 9.0 0.00 0.02 0.02 88 1011.7
20260903234534 73 215 5.0 8.0 0.00 0.02 0.02 88 1011.7
20260903234010 73 229 3.0 6.0 0.00 0.02 0.02 87 1011.6
20260903233511 73 165 1.0 5.0 0.00 0.02 0.02 87 1011.6
20260903233026 74 265 1.0 4.0 0.00 0.02 0.02 87 1011.7
20260903232521 74 221 1.0 4.0 0.00 0.02 0.02 87 1011.7
20260903232014 74 265 0.0 2.0 0.00 0.02 0.02 86 1011.6
20260903231530 74 247 0.0 2.0 0.00 0.02 0.02 86 1011.5
20260903231015 75 51 0.0 3.0 0.00 0.02 0.02 86 1011.6
20260903230517 75 334 1.0 4.0 0.00 0.02 0.02 86 1011.6
20260903230035 75 232 2.0 4.0 0.00 0.02 0.02 85 1011.7
20260903225523 75 265 1.0 2.0 0.00 0.02 0.02 86 1011.7
20260903225015 75 238 1.0 3.0 0.00 0.02 0.02 86 1011.8
20260903224543 75 221 1.0 4.0 0.00 0.02 0.02 85 1011.6
20260903224019 76 250 1.0 5.0 0.00 0.02 0.02 85 1011.7
20260903223524 76 234 3.0 5.0 0.00 0.02 0.02 85 1011.8
20260903223036 76 229 3.0 4.0 0.00 0.02 0.02 85 1011.7
20260903222510 76 229 2.0 4.0 0.00 0.02 0.02 85 1011.7
20260903222012 76 250 1.0 3.0 0.00 0.02 0.02 85 1011.5
20260903221529 76 238 0.0 3.0 0.00 0.02 0.02 84 1011.7
20260903221012 77 238 2.0 4.0 0.00 0.02 0.02 83 1011.7
20260903220514 77 291 2.0 6.0 0.00 0.02 0.02 82 1011.6
20260903220030 77 225 4.0 8.0 0.00 0.02 0.02 81 1011.7
20260903215519 78 200 5.0 11.0 0.00 0.02 0.02 80 1011.8
20260903215014 78 201 4.0 11.0 0.00 0.02 0.02 80 1011.8
20260903214535 78 213 4.0 11.0 0.00 0.02 0.02 80 1011.9
20260903214016 78 213 5.0 8.0 0.00 0.02 0.02 82 1012.2
20260903213520 78 219 4.0 7.0 0.00 0.02 0.02 82 1012.3
20260903213037 77 194 3.0 7.0 0.00 0.02 0.02 81 1012.1
20260903212519 77 209 2.0 5.0 0.00 0.02 0.02 82 1012.0
20260903212014 77 51 1.0 4.0 0.00 0.02 0.02 84 1011.9
20260903211541 76 24 3.0 4.0 0.00 0.02 0.02 84 1011.9
20260903211010 76 309 2.0 4.0 0.00 0.02 0.02 84 1012.0
20260903210512 76 22 0.0 3.0 0.00 0.02 0.02 83 1012.0
20260903210025 76 309 0.0 3.0 0.00 0.02 0.02 82 1011.9
20260903205522 77 265 1.0 4.0 0.00 0.02 0.02 81 1011.9
20260903205015 77 168 1.0 5.0 0.00 0.02 0.02 81 1011.9
20260903204532 77 216 3.0 6.0 0.00 0.02 0.02 80 1011.9
20260903204017 77 212 4.0 7.0 0.00 0.02 0.02 80 1012.0
20260903203519 78 232 3.0 9.0 0.00 0.02 0.02 79 1011.9
20260903203040 78 221 4.0 9.0 0.00 0.02 0.02 79 1011.9
20260903202518 78 194 4.0 9.0 0.00 0.02 0.02 78 1011.9
20260903202015 77 175 5.0 9.0 0.00 0.02 0.02 79 1011.9
20260903201536 78 212 3.0 8.0 0.00 0.02 0.02 79 1011.9
20260903201009 77 220 3.0 6.0 0.00 0.02 0.02 80 1011.9
20260903200506 77 74 2.0 10.0 0.00 0.02 0.02 81 1012.1
20260903200005 77 195 4.0 10.0 0.00 0.02 0.02 81 1012.1